| time (UTC) | temp F | wind direction | speed MPH | gust MPH | rain 1hr in | rain 24hr in | rain mn in | humidity % | barometer mb |
| 20260902073102 | 69 | 93 | 0.0 | 0.0 | 0.00 | 0.00 | 0.00 | 53 | 1022.8 |
| 20260902071554 | 70 | 121 | 0.0 | 0.0 | 0.00 | 0.00 | 0.00 | 52 | 1022.8 |
| 20260902070052 | 71 | 110 | 0.0 | 0.0 | 0.00 | 0.00 | 0.00 | 51 | 1022.7 |
| 20260902064550 | 72 | 96 | 0.0 | 0.0 | 0.00 | 0.00 | 0.00 | 50 | 1022.7 |
| 20260902063047 | 72 | 118 | 0.0 | 0.0 | 0.00 | 0.00 | 0.00 | 52 | 1022.8 |
| 20260902061558 | 71 | 101 | 0.0 | 0.0 | 0.00 | 0.00 | 0.00 | 53 | 1022.8 |
| 20260902060055 | 72 | 105 | 0.0 | 0.0 | 0.00 | 0.00 | 0.00 | 52 | 1022.7 |
| 20260902054605 | 73 | 89 | 0.0 | 0.0 | 0.00 | 0.00 | 0.00 | 51 | 1022.8 |
| 20260902053057 | 74 | 116 | 0.0 | 0.0 | 0.00 | 0.00 | 0.00 | 49 | 1022.8 |
| 20260902051540 | 75 | 101 | 1.0 | 10.0 | 0.00 | 0.00 | 0.00 | 49 | 1023.0 |
| 20260902050040 | 76 | 88 | 0.0 | 1.0 | 0.00 | 0.00 | 0.00 | 44 | 1023.0 |
| 20260902044540 | 75 | 139 | 0.0 | 0.0 | 0.00 | 0.00 | 0.00 | 47 | 1023.0 |
| 20260902043043 | 74 | 110 | 0.0 | 0.0 | 0.00 | 0.00 | 0.00 | 48 | 1023.0 |
| 20260902041540 | 74 | 285 | 0.0 | 0.0 | 0.00 | 0.00 | 0.00 | 50 | 1023.0 |
| 20260902040047 | 75 | 285 | 0.0 | 0.0 | 0.00 | 0.00 | 0.00 | 50 | 1022.9 |
| 20260902034539 | 76 | 216 | 0.0 | 0.0 | 0.00 | 0.00 | 0.00 | 46 | 1022.7 |
| 20260902033037 | 76 | 94 | 0.0 | 0.0 | 0.00 | 0.00 | 0.00 | 46 | 1022.5 |
| 20260902031543 | 76 | 93 | 0.0 | 0.0 | 0.00 | 0.00 | 0.00 | 45 | 1022.3 |
| 20260902030036 | 77 | 108 | 0.0 | 0.0 | 0.00 | 0.00 | 0.00 | 44 | 1022.2 |
| 20260902024539 | 78 | 100 | 0.0 | 1.0 | 0.00 | 0.00 | 0.00 | 42 | 1022.0 |
| 20260902023041 | 78 | 104 | 0.0 | 1.0 | 0.00 | 0.00 | 0.00 | 44 | 1021.8 |
| 20260902021534 | 78 | 114 | 0.0 | 5.0 | 0.00 | 0.00 | 0.00 | 44 | 1021.5 |
| 20260902020037 | 79 | 102 | 0.0 | 7.0 | 0.00 | 0.00 | 0.00 | 41 | 1021.4 |
| 20260902014534 | 79 | 116 | 1.0 | 8.0 | 0.00 | 0.00 | 0.00 | 40 | 1021.2 |
| 20260902013032 | 80 | 88 | 2.0 | 8.0 | 0.00 | 0.00 | 0.00 | 39 | 1021.0 |
| 20260902011534 | 83 | 318 | 0.0 | 0.0 | 0.00 | 0.00 | 0.00 | 33 | 1020.8 |
| 20260902010032 | 84 | 240 | 0.0 | 1.0 | 0.00 | 0.00 | 0.00 | 31 | 1020.8 |
| 20260902004531 | 85 | 295 | 0.0 | 0.0 | 0.00 | 0.00 | 0.00 | 30 | 1020.8 |
| 20260902003033 | 85 | 230 | 0.0 | 1.0 | 0.00 | 0.00 | 0.00 | 31 | 1020.8 |
| 20260902001540 | 85 | 243 | 2.0 | 8.0 | 0.00 | 0.00 | 0.00 | 30 | 1020.9 |
| 20260902000035 | 85 | 299 | 3.0 | 12.0 | 0.00 | 0.00 | 0.00 | 30 | 1020.9 |
| 20260901234529 | 86 | 267 | 7.0 | 12.0 | 0.00 | 0.00 | 0.00 | 29 | 1020.7 |
| 20260901233027 | 87 | 242 | 5.0 | 14.0 | 0.00 | 0.00 | 0.00 | 29 | 1020.7 |
| 20260901231528 | 87 | 257 | 4.0 | 8.0 | 0.00 | 0.00 | 0.00 | 29 | 1020.6 |
| 20260901230027 | 87 | 236 | 4.0 | 10.0 | 0.00 | 0.00 | 0.00 | 28 | 1020.7 |
| 20260901224525 | 87 | 245 | 1.0 | 9.0 | 0.00 | 0.00 | 0.00 | 28 | 1020.7 |
| 20260901223025 | 88 | 256 | 4.0 | 8.0 | 0.00 | 0.00 | 0.00 | 26 | 1020.8 |
| 20260901221524 | 88 | 271 | 2.0 | 12.0 | 0.00 | 0.00 | 0.00 | 27 | 1020.9 |
| 20260901220023 | 87 | 271 | 0.0 | 1.0 | 0.00 | 0.00 | 0.00 | 27 | 1020.9 |
| 20260901214522 | 86 | 263 | 0.0 | 5.0 | 0.00 | 0.00 | 0.00 | 27 | 1021.1 |
| 20260901213021 | 85 | 8 | 7.0 | 17.0 | 0.00 | 0.00 | 0.00 | 33 | 1021.1 |
| 20260901211520 | 87 | 52 | 6.0 | 12.0 | 0.00 | 0.00 | 0.00 | 30 | 1021.4 |
| 20260901210020 | 89 | 198 | 0.0 | 11.0 | 0.00 | 0.00 | 0.00 | 26 | 1021.5 |
| 20260901204517 | 89 | 267 | 1.0 | 15.0 | 0.00 | 0.00 | 0.00 | 25 | 1021.7 |
| 20260901203013 | 89 | 129 | 1.0 | 12.0 | 0.00 | 0.00 | 0.00 | 27 | 1022.0 |
| 20260901201509 | 88 | 268 | 4.0 | 12.0 | 0.00 | 0.00 | 0.00 | 27 | 1022.1 |
| 20260901200004 | 87 | 246 | 4.0 | 8.0 | 0.00 | 0.00 | 0.00 | 28 | 1022.2 |
| 20260901194501 | 87 | 266 | 5.0 | 10.0 | 0.00 | 0.00 | 0.00 | 28 | 1022.5 |
| 20260901193057 | 87 | 95 | 0.0 | 10.0 | 0.00 | 0.00 | 0.00 | 28 | 1022.7 |
| 20260901191601 | 87 | 253 | 2.0 | 8.0 | 0.00 | 0.00 | 0.00 | 28 | 1023.0 |
| 20260901190049 | 85 | 287 | 1.0 | 9.0 | 0.00 | 0.00 | 0.00 | 29 | 1023.2 |
| 20260901184548 | 85 | 287 | 0.0 | 4.0 | 0.00 | 0.00 | 0.00 | 30 | 1023.3 |
| 20260901183048 | 83 | 244 | 0.0 | 6.0 | 0.00 | 0.00 | 0.00 | 32 | 1023.6 |
| 20260901181542 | 84 | 252 | 0.0 | 6.0 | 0.00 | 0.00 | 0.00 | 31 | 1023.7 |
| 20260901180039 | 83 | 263 | 0.0 | 9.0 | 0.00 | 0.00 | 0.00 | 33 | 1023.9 |
| 20260901174546 | 83 | 275 | 0.0 | 4.0 | 0.00 | 0.00 | 0.00 | 34 | 1024.0 |
| 20260901173049 | 83 | 238 | 0.0 | 10.0 | 0.00 | 0.00 | 0.00 | 34 | 1024.0 |
| 20260901171532 | 82 | 330 | 0.0 | 3.0 | 0.00 | 0.00 | 0.00 | 34 | 1024.1 |
| 20260901170028 | 81 | 332 | 0.0 | 0.0 | 0.00 | 0.00 | 0.00 | 37 | 1024.1 |
| 20260901164539 | 80 | 301 | 0.0 | 1.0 | 0.00 | 0.00 | 0.00 | 40 | 1024.1 |
| 20260901163022 | 79 | 341 | 0.0 | 1.0 | 0.00 | 0.00 | 0.00 | 40 | 1023.9 |
| 20260901161542 | 79 | 23 | 0.0 | 0.0 | 0.00 | 0.00 | 0.00 | 41 | 1023.8 |
| 20260901154620 | 78 | 257 | 0.0 | 4.0 | 0.00 | 0.00 | 0.00 | 44 | 1023.9 |
| 20260901153037 | 77 | 27 | 0.0 | 3.0 | 0.00 | 0.00 | 0.00 | 45 | 1023.9 |
| 20260901151618 | 77 | 327 | 0.0 | 1.0 | 0.00 | 0.00 | 0.00 | 45 | 1023.8 |
| 20260901144510 | 74 | 12 | 0.0 | 0.0 | 0.00 | 0.00 | 0.00 | 52 | 1023.9 |
| 20260901143010 | 72 | 43 | 0.0 | 0.0 | 0.00 | 0.00 | 0.00 | 55 | 1024.0 |
| 20260901141513 | 70 | 28 | 0.0 | 1.0 | 0.00 | 0.00 | 0.00 | 61 | 1024.0 |
| 20260901140009 | 68 | 35 | 0.0 | 0.0 | 0.00 | 0.00 | 0.00 | 63 | 1024.1 |
| 20260901134507 | 67 | 58 | 0.0 | 1.0 | 0.00 | 0.00 | 0.00 | 64 | 1024.0 |
| 20260901133007 | 66 | 67 | 0.0 | 1.0 | 0.00 | 0.00 | 0.00 | 64 | 1023.8 |
| 20260901131507 | 64 | 68 | 0.0 | 0.0 | 0.00 | 0.00 | 0.00 | 65 | 1023.9 |
| 20260901130004 | 62 | 60 | 0.0 | 0.0 | 0.00 | 0.00 | 0.00 | 62 | 1023.7 |
| 20260901124501 | 61 | 46 | 0.0 | 0.0 | 0.00 | 0.00 | 0.00 | 61 | 1023.5 |
| 20260901123058 | 62 | 54 | 0.0 | 0.0 | 0.00 | 0.00 | 0.00 | 62 | 1023.3 |
| 20260901121556 | 62 | 53 | 0.0 | 0.0 | 0.00 | 0.00 | 0.00 | 64 | 1023.0 |
| 20260901120052 | 64 | 131 | 0.0 | 0.0 | 0.00 | 0.00 | 0.00 | 66 | 1023.0 |
| 20260901114627 | 64 | 97 | 0.0 | 0.0 | 0.00 | 0.00 | 0.00 | 65 | 1022.8 |
| 20260901113049 | 64 | 98 | 0.0 | 0.0 | 0.00 | 0.00 | 0.00 | 66 | 1022.9 |
| 20260901111550 | 64 | 98 | 0.0 | 0.0 | 0.00 | 0.00 | 0.00 | 66 | 1022.7 |
| 20260901110045 | 65 | 80 | 0.0 | 0.0 | 0.00 | 0.00 | 0.00 | 66 | 1022.5 |
| 20260901104543 | 66 | 318 | 0.0 | 0.0 | 0.00 | 0.00 | 0.00 | 65 | 1022.4 |
| 20260901103041 | 67 | 112 | 0.0 | 0.0 | 0.00 | 0.00 | 0.00 | 65 | 1022.5 |
| 20260901101540 | 67 | 112 | 0.0 | 0.0 | 0.00 | 0.00 | 0.00 | 64 | 1022.6 |
| 20260901100038 | 68 | 103 | 0.0 | 0.0 | 0.00 | 0.00 | 0.00 | 63 | 1022.5 |
| 20260901094541 | 68 | 86 | 0.0 | 0.0 | 0.00 | 0.00 | 0.00 | 64 | 1022.6 |
| 20260901093037 | 67 | 61 | 0.0 | 0.0 | 0.00 | 0.00 | 0.00 | 64 | 1022.6 |
| 20260901091534 | 67 | 66 | 0.0 | 0.0 | 0.00 | 0.00 | 0.00 | 65 | 1022.9 |
| 20260901090032 | 66 | 68 | 0.0 | 0.0 | 0.00 | 0.00 | 0.00 | 65 | 1023.1 |
| 20260901084532 | 66 | 54 | 0.0 | 0.0 | 0.00 | 0.00 | 0.00 | 65 | 1023.2 |
| 20260901083031 | 66 | 260 | 0.0 | 0.0 | 0.00 | 0.00 | 0.00 | 63 | 1023.2 |
| 20260901081527 | 67 | 260 | 0.0 | 0.0 | 0.00 | 0.00 | 0.00 | 64 | 1023.3 |
| 20260901080025 | 67 | 332 | 0.0 | 0.0 | 0.00 | 0.00 | 0.00 | 64 | 1023.4 |
| 20260901074521 | 68 | 233 | 0.0 | 0.0 | 0.00 | 0.00 | 0.00 | 65 | 1023.4 |